Temperature
18 18 17 17 17 17 17 17 16 16 16 16 16 16 15 15 15 15 15 15 15 15 15 14 14 14 14 14 14 14 14 14 14 14 14 14 13 13 13 13 13 13 13
18 17 17 17 17 17 17 17 16 16 16 16 16 15 15 15 15 15 15 15 15 15 14 14 14 14 14 14 14 14 14 14 14 14 13 13 13 13 13 13 13 13 13
18 18 17 17 17 17 16 16 16 16 16 16 16 15 15 15 15 15 15 15 15 14 14 14 14 14 14 14 14 14 14 14 13 14 13 13 13 13 13 13 13 13 13
18 18 17 17 17 17 16 16 16 16 16 16 15 15 15 15 15 15 15 15 14 14 14 14 14 14 14 14 13 13 13 14 13 13 13 13 13 13 12 12 12 12 12
18 18 17 17 17 16 16 16 16 16 16 16 15 15 15 15 15 15 15 15 14 14 14 14 14 14 14 13 13 13 13 13 13 13 13 13 13 13 12 12 12 12 12
18 18 17 17 17 16 16 16 16 16 16 15 15 15 15 15 15 15 14 14 14 14 14 14 14 14 13 13 13 13 13 13 13 13 13 13 13 13 13 12 12 12 12
18 17 17 17 16 16 16 16 16 16 16 15 15 15 15 15 15 14 14 14 14 14 14 14 14 14 13 13 13 13 13 13 13 13 13 13 13 13 13 12 12 12 12
18 17 17 17 17 16 16 16 16 16 16 15 15 15 15 15 14 14 14 14 14 14 14 14 14 13 13 13 13 13 13 13 13 13 13 13 13 13 13 12 12 12 11
17 17 17 17 16 16 16 16 16 16 16 15 15 15 15 15 14 14 14 14 14 14 14 14 13 13 13 13 13 13 13 13 13 13 13 13 13 12 12 12 12 12 11
17 17 17 17 16 16 16 16 16 16 15 15 15 15 15 14 14 14 14 14 14 14 13 13 13 13 13 13 13 13 13 13 13 13 12 12 12 12 12 12 12 12 12
17 17 17 16 16 16 16 16 16 16 15 15 15 15 15 14 14 14 14 14 14 13 13 13 13 13 13 13 13 13 13 12 12 12 12 12 12 12 12 12 12 12 12
17 17 16 16 16 16 16 16 15 15 15 15 15 15 15 14 14 14 14 14 13 13 13 13 13 13 13 13 13 12 12 12 12 12 12 12 12 12 12 12 12 12 11
16 16 16 16 16 16 15 15 15 15 15 15 15 14 14 14 14 14 14 14 13 13 13 13 13 13 13 12 12 12 12 12 12 12 12 12 12 12 12 12 12 11 11
16 16 16 15 15 15 15 15 15 15 15 15 14 14 14 14 14 14 14 13 13 13 13 13 13 13 12 12 12 12 12 12 12 12 12 12 11 12 11 11 11 11 11
15 15 15 15 15 15 15 15 15 15 15 14 14 14 14 14 14 13 13 13 13 13 13 12 12 12 12 12 12 12 12 12 12 12 11 11 11 11 11 11 11 11 11
15 15 15 15 15 15 15 15 15 15 14 14 14 14 14 13 13 13 13 13 13 12 12 12 12 12 12 11 11 11 11 11 11 11 11 11 11 11 11 11 11 11 10
15 15 15 15 15 14 14 14 14 14 14 14 14 13 13 13 13 13 13 12 12 12 12 12 12 11 11 11 11 11 11 11 11 11 11 11 11 11 10 10 10 10 10
15 15 15 14 14 14 14 14 14 14 14 13 13 13 13 13 13 12 12 12 12 12 12 11 11 11 11 11 11 10 10 10 10 10 10 10 10 10 10 10 10 10 10
14 14 14 14 14 14 14 13 13 13 13 13 13 13 13 13 12 12 12 12 12 11 11 11 11 11 11 10 10 10 10 10 10 10 10 10 10 10 10 9 9 9 9
14 14 14 14 13 13 13 13 13 13 13 13 13 12 12 12 12 12 12 11 11 11 11 10 10 10 10 10 10 10 10 10 10 9 9 9 9 9 9 9 9 9 9
13 13 13 13 13 13 13 13 13 13 13 12 12 12 12 12 12 11 11 11 11 11 10 10 10 10 10 10 10 9 9 9 9 9 9 9 9 9 9 9 9 9 9
13 13 13 12 12 12 12 12 12 12 12 12 12 12 11 11 11 11 11 10 10 10 10 10 10 9 9 9 9 9 9 9 9 9 9 9 9 9 9 9 8 8 8
12 12 12 12 12 12 12 12 12 12 12 12 11 11 11 11 10 10 10 10 10 10 9 9 9 9 9 9 9 9 9 9 9 9 8 8 8 8 8 8 8 8 8
11 11 11 11 11 11 11 11 11 11 11 11 11 11 10 10 10 10 10 10 9 9 9 9 9 9 9 8 8 8 8 8 8 8 8 8 8 8 8 7 7 7 7
11 11 11 11 11 11 11 11 11 11 11 11 10 10 10 10 10 9 9 9 9 9 9 9 8 8 8 8 8 8 8 8 8 8 8 8 7 7 7 7 7 7 7
10 10 10 10 10 10 10 10 10 10 10 10 10 10 10 9 9 9 9 9 8 8 8 8 8 8 8 8 8 7 7 7 7 7 7 7 7 7 7 7 7 7 7
Wind_Speed
6 5 5 6 5 5 6 6 6 5 5 4 3 3 2 1 2 3 4 5 6 6 6 4 4 4 4 3 3 3 4 3 3 4 4 4 5 4 4 4 4 5 5
5 5 6 5 6 5 6 7 7 6 5 4 3 3 3 2 2 2 4 5 6 5 6 5 3 3 3 4 3 3 3 2 2 3 3 3 4 4 4 3 3 3 4
10 8 7 6 6 6 6 7 6 6 5 5 4 4 4 3 3 2 2 2 4 5 5 4 3 3 3 3 2 3 3 2 1 2 3 3 1 1 3 3 3 3 3
9 9 9 8 8 7 6 6 6 6 5 6 6 6 4 3 2 1 1 1 3 4 4 4 3 3 2 2 2 2 2 3 1 1 1 2 3 2 1 3 3 3 3
10 10 10 10 9 8 7 6 7 6 5 6 7 6 4 2 1 1 2 1 1 2 3 3 3 3 2 2 2 2 2 2 2 1 1 2 2 2 3 0 2 3 2
8 9 9 8 7 7 6 6 7 6 5 6 6 6 6 4 3 2 2 1 0 0 1 2 2 2 2 2 2 2 3 2 2 1 2 2 2 1 2 2 1 1 2
8 8 9 9 9 9 8 7 7 6 6 6 6 5 6 6 5 4 3 2 1 1 2 1 1 1 2 2 2 2 2 2 2 2 1 1 2 2 2 3 1 0 1
8 9 10 10 9 10 9 8 8 7 7 7 6 5 5 4 4 4 4 3 3 2 2 2 2 2 2 2 3 2 2 1 2 2 2 1 1 2 3 3 3 1 1
7 8 9 9 9 9 10 10 9 8 7 7 6 5 5 4 4 4 3 3 2 2 2 2 2 2 2 2 3 2 2 2 1 2 2 1 1 1 2 3 4 4 2
4 5 6 8 9 9 9 8 8 8 8 7 7 6 5 5 4 4 3 3 3 2 2 2 2 2 2 2 2 2 1 2 1 1 2 1 1 1 1 2 2 3 4
5 5 5 5 6 7 8 7 7 7 7 7 6 6 5 5 5 4 4 3 3 3 3 2 2 3 2 2 2 2 2 2 1 1 1 1 1 1 1 2 2 2 3
4 4 4 3 3 5 6 7 6 7 7 6 6 6 6 5 5 4 4 4 3 3 3 3 3 3 3 3 3 2 1 2 2 1 1 1 1 1 1 2 2 2 3
3 3 3 3 3 5 6 6 6 7 6 6 6 6 6 6 5 5 4 4 4 3 3 3 3 3 3 3 2 2 2 2 2 2 2 2 2 1 1 2 2 2 2
3 3 3 2 2 3 4 6 6 6 6 5 6 6 6 6 6 5 4 4 4 4 3 3 4 4 4 3 3 2 2 1 1 2 2 3 3 4 3 2 2 2 2
3 3 3 2 2 1 2 4 5 5 6 6 6 6 6 5 5 4 4 4 3 4 4 3 3 2 3 3 3 3 3 2 1 1 2 2 3 4 3 3 3 3 2
3 3 3 2 2 2 2 3 4 5 6 7 7 6 5 5 5 4 4 4 3 3 3 4 4 3 3 3 4 4 3 2 2 2 1 1 1 3 4 4 4 5 4
3 4 4 4 4 4 3 4 4 4 5 6 5 5 5 4 4 4 4 4 4 4 3 3 4 4 4 4 4 4 3 3 3 2 2 2 1 1 1 2 3 4 5
3 3 3 3 2 2 2 2 3 4 5 5 5 5 5 5 4 4 4 4 3 4 4 4 4 3 3 3 4 4 3 2 3 3 3 3 2 1 2 2 2 2 2
2 3 3 3 2 1 2 2 3 4 4 5 5 5 6 5 4 4 5 4 3 3 3 3 3 3 3 4 4 4 2 2 2 3 3 3 3 3 3 3 2 1 1
1 1 1 2 2 2 3 3 3 4 4 5 5 5 5 6 6 6 5 3 3 3 3 2 3 3 3 4 5 5 3 2 2 2 2 4 4 4 4 3 3 3 2
1 1 2 1 1 1 3 3 3 4 5 4 4 4 4 5 6 5 4 3 3 3 2 2 2 3 3 4 4 4 3 3 3 2 2 3 4 4 5 4 4 4 3
1 1 1 0 1 1 2 2 4 4 3 3 4 4 4 4 4 4 3 4 4 3 3 2 2 2 3 3 4 4 4 4 3 4 3 3 4 4 4 4 4 4 2
1 1 1 0 2 1 2 2 3 3 3 3 3 3 3 3 4 5 4 3 3 4 4 3 3 3 2 3 4 4 4 4 3 3 4 4 3 3 3 4 4 3 2
1 1 1 0 1 2 2 2 2 2 3 3 3 3 3 3 3 4 4 4 4 5 5 5 5 4 3 3 3 3 3 3 3 2 3 3 3 2 2 3 3 3 3
2 1 1 1 3 3 2 2 1 2 2 2 3 3 3 3 3 3 4 5 6 7 7 6 6 5 5 6 6 4 4 4 4 2 1 1 1 1 1 1 2 2 2
2 2 2 2 3 3 3 3 2 3 3 2 2 2 3 3 3 3 2 4 5 7 8 8 7 6 8 7 7 7 6 6 5 2 2 3 3 4 3 3 2 2 3
Wind_Direction
186 165 158 143 137 140 137 131 132 134 122 112 108 102 98 82 72 83 97 100 100 105 106 96 89 86 84 83 81 79 68 54 65 70 41 21 28 37 39 44 52 49 53
169 165 158 150 145 153 151 142 143 142 139 140 141 137 131 112 96 78 79 91 97 109 118 110 109 105 98 84 77 83 83 54 61 98 86 34 11 10 20 33 55 46 51
178 174 167 166 156 155 161 157 153 147 141 134 113 92 70 57 48 53 56 58 94 103 116 117 117 123 117 117 107 104 108 103 25 81 120 122 178 333 355 12 30 35 45
178 175 171 170 171 169 167 163 154 147 142 134 129 128 128 137 178 169 128 68 97 104 115 120 121 129 124 130 136 123 123 123 102 15 55 135 152 139 24 350 2 17 32
179 180 179 177 173 164 164 161 152 150 149 144 144 141 139 156 149 112 98 87 84 105 117 122 116 129 135 146 134 118 119 127 143 145 104 76 73 100 132 180 342 1 356
179 181 182 170 163 158 163 158 155 157 156 153 151 152 153 150 139 136 133 125 104 93 137 122 117 142 148 152 147 137 134 130 124 127 124 134 137 155 139 155 188 338 326
179 179 178 173 171 170 176 167 165 168 166 162 165 166 162 159 164 168 169 159 153 210 227 166 163 170 178 169 149 134 139 143 143 157 157 156 169 159 144 139 155 151 325
181 183 184 181 182 181 177 174 175 179 175 171 175 173 166 164 173 177 177 179 185 203 208 180 177 177 168 160 156 141 154 142 163 170 165 153 177 152 148 153 146 117 1
178 185 184 181 184 184 181 179 180 181 179 178 174 176 180 175 176 179 176 180 188 190 181 170 163 157 150 150 151 148 168 160 175 183 174 163 182 157 152 148 152 151 167
175 175 183 190 189 186 186 181 179 182 184 182 180 182 180 176 172 163 168 175 184 178 168 165 153 153 141 130 128 150 175 162 195 172 143 154 191 167 153 157 156 150 160
187 192 192 195 192 184 177 177 182 183 187 185 182 173 174 173 165 166 174 175 174 173 176 169 156 157 146 130 127 157 155 155 171 142 150 208 186 172 175 157 149 151 147
187 184 183 178 185 184 183 179 184 185 191 186 178 176 177 169 169 174 179 172 169 172 171 152 147 152 144 136 142 154 151 170 182 197 174 224 204 194 201 174 178 183 177
151 149 158 170 185 192 189 188 186 188 187 175 174 176 175 174 179 184 185 176 169 167 161 150 158 161 159 154 162 163 155 175 197 204 198 216 185 205 222 199 192 192 173
139 135 141 167 181 192 200 197 196 190 180 169 170 178 187 186 187 186 186 182 172 166 168 169 175 174 172 169 173 162 165 171 210 222 213 213 200 205 204 201 193 172 156
144 150 159 169 177 181 212 202 200 193 178 167 170 183 187 182 180 179 179 177 170 172 171 164 168 179 179 185 176 176 177 177 204 238 234 230 211 201 194 188 183 169 171
179 174 170 168 182 192 209 201 196 195 175 171 179 180 173 171 177 184 181 172 170 176 167 168 175 189 207 197 179 170 172 177 192 227 261 260 236 224 204 191 180 171 177
199 195 196 194 199 204 201 200 199 178 169 176 179 174 172 175 184 181 173 179 183 176 180 186 181 191 210 195 185 180 175 179 195 209 227 259 276 253 208 194 188 188 187
207 214 212 208 213 205 209 210 185 167 173 179 176 172 170 177 179 168 175 188 183 185 194 198 194 187 208 191 181 177 171 180 198 199 204 217 246 229 186 165 152 181 216
205 209 206 189 184 196 194 169 167 167 172 184 185 185 179 177 174 179 189 189 179 187 194 191 187 190 217 204 189 172 165 182 212 217 213 211 216 219 190 159 164 184 272
175 183 176 142 141 183 170 155 173 169 184 198 199 196 187 179 183 192 194 189 184 189 179 179 191 199 215 215 202 178 170 187 221 238 241 226 214 207 185 178 178 196 237
86 112 120 135 191 190 151 159 177 195 204 197 189 189 192 189 188 189 187 177 178 166 168 187 213 216 220 226 219 193 184 194 209 223 237 244 226 206 194 190 193 209 207
60 78 99 35 318 160 150 181 208 216 199 181 179 186 191 191 182 173 180 179 173 169 184 197 224 246 246 234 230 214 213 203 201 223 231 235 236 225 209 206 215 209 178
32 30 101 359 345 324 174 203 225 206 177 170 182 186 189 190 181 180 183 183 183 188 203 204 219 236 245 248 245 234 229 220 218 227 229 230 226 224 223 216 213 193 179
306 336 65 78 314 305 262 223 216 184 159 174 191 188 185 197 197 196 192 190 197 203 210 214 223 231 240 243 236 229 229 224 233 239 237 234 231 219 232 237 226 206 198
315 325 303 261 272 284 284 273 209 163 165 187 193 197 196 196 208 213 212 208 215 212 211 216 214 212 229 235 224 217 221 218 219 209 213 190 208 228 261 266 245 224 212
320 315 293 270 277 279 276 275 229 179 169 181 198 198 196 198 207 211 250 251 235 234 228 221 218 225 229 233 231 229 233 229 207 189 208 222 224 225 232 234 238 232 227
Height
1515 1517 1518 1519 1520 1521 1523 1524 1525 1526 1527 1528 1528 1529 1529 1530 1530 1530 1530 1530 1530 1530 1530 1529 1529 1529 1529 1529 1528 1528 1528 1528 1528 1528 1528 1529 1529 1529 1528 1528 1528 1528 1528
1514 1515 1517 1518 1519 1520 1522 1523 1524 1526 1526 1527 1528 1529 1529 1530 1530 1531 1531 1531 1530 1530 1530 1530 1530 1530 1530 1529 1529 1529 1529 1529 1529 1529 1529 1529 1531 1530 1530 1530 1529 1529 1529
1511 1513 1514 1516 1517 1519 1521 1522 1523 1525 1526 1527 1528 1529 1530 1530 1530 1530 1531 1531 1531 1530 1530 1530 1531 1530 1530 1530 1530 1530 1530 1529 1530 1530 1530 1530 1530 1531 1531 1531 1530 1530 1530
1509 1510 1512 1514 1516 1517 1519 1521 1522 1524 1525 1526 1527 1528 1528 1529 1529 1530 1530 1530 1531 1531 1531 1531 1531 1531 1531 1530 1530 1530 1530 1530 1530 1530 1530 1531 1531 1531 1531 1532 1531 1531 1531
1506 1508 1510 1511 1514 1516 1518 1520 1521 1523 1524 1525 1526 1527 1528 1528 1529 1530 1530 1530 1530 1530 1530 1531 1531 1531 1531 1531 1531 1531 1530 1530 1530 1530 1530 1530 1531 1531 1531 1531 1531 1531 1531
1504 1506 1508 1510 1512 1515 1517 1518 1519 1521 1523 1524 1525 1526 1527 1527 1528 1528 1529 1529 1529 1530 1530 1530 1530 1530 1531 1531 1531 1531 1530 1530 1530 1530 1530 1530 1530 1530 1530 1530 1531 1531 1531
1502 1504 1506 1508 1510 1512 1514 1516 1518 1519 1521 1522 1524 1525 1526 1526 1527 1527 1527 1528 1528 1529 1529 1529 1529 1530 1530 1530 1530 1530 1530 1530 1530 1530 1530 1530 1530 1530 1530 1530 1530 1530 1531
1500 1502 1504 1506 1508 1510 1512 1514 1516 1517 1519 1521 1522 1523 1524 1525 1525 1526 1526 1527 1527 1527 1528 1528 1528 1529 1529 1529 1529 1529 1529 1529 1529 1529 1529 1529 1529 1530 1529 1530 1530 1530 1530
1498 1500 1502 1504 1506 1508 1509 1512 1514 1515 1517 1518 1520 1521 1522 1523 1524 1524 1525 1525 1526 1526 1527 1527 1527 1527 1528 1528 1528 1528 1528 1528 1528 1528 1528 1528 1528 1529 1529 1529 1529 1529 1529
1497 1498 1500 1502 1504 1505 1507 1510 1512 1513 1515 1516 1518 1519 1520 1521 1522 1523 1523 1524 1524 1525 1525 1525 1525 1526 1526 1526 1526 1527 1527 1527 1527 1527 1527 1527 1527 1527 1527 1527 1527 1528 1528
1496 1497 1498 1500 1502 1504 1505 1507 1510 1511 1513 1514 1515 1517 1518 1519 1520 1521 1521 1522 1522 1523 1523 1523 1524 1524 1524 1525 1525 1525 1525 1525 1525 1525 1525 1525 1526 1525 1525 1525 1526 1526 1526
1495 1496 1497 1498 1499 1501 1503 1505 1507 1508 1510 1512 1513 1514 1515 1516 1517 1518 1519 1519 1520 1521 1521 1521 1522 1522 1522 1523 1523 1523 1523 1523 1524 1523 1523 1523 1523 1523 1523 1524 1524 1524 1524
1493 1494 1495 1496 1498 1499 1500 1502 1504 1505 1507 1509 1510 1511 1512 1513 1514 1516 1516 1517 1517 1518 1519 1519 1519 1520 1520 1520 1520 1520 1520 1521 1521 1521 1521 1521 1521 1521 1521 1521 1521 1522 1522
1492 1492 1493 1494 1496 1497 1498 1499 1501 1502 1504 1505 1507 1508 1509 1510 1512 1513 1513 1514 1515 1515 1516 1516 1517 1517 1517 1518 1518 1518 1518 1518 1518 1519 1519 1519 1519 1519 1519 1519 1519 1519 1519
1491 1491 1491 1492 1493 1494 1495 1497 1498 1499 1501 1502 1503 1504 1506 1507 1509 1510 1510 1511 1512 1513 1513 1513 1514 1514 1514 1514 1515 1515 1515 1515 1515 1516 1516 1516 1516 1516 1516 1516 1516 1516 1517
1489 1489 1490 1490 1491 1491 1492 1493 1495 1496 1498 1499 1500 1501 1503 1504 1505 1506 1507 1508 1509 1510 1510 1510 1511 1511 1511 1511 1512 1512 1512 1512 1512 1512 1512 1513 1513 1513 1513 1513 1514 1514 1514
1487 1487 1487 1487 1488 1489 1490 1490 1491 1493 1494 1495 1497 1498 1500 1501 1502 1503 1504 1504 1505 1506 1507 1507 1507 1507 1507 1508 1509 1509 1509 1509 1509 1509 1509 1509 1509 1509 1510 1510 1510 1511 1511
1485 1485 1485 1485 1485 1486 1487 1488 1489 1490 1491 1492 1493 1495 1496 1497 1498 1499 1500 1501 1502 1503 1503 1503 1504 1504 1504 1505 1505 1506 1506 1506 1506 1506 1506 1506 1506 1506 1506 1506 1506 1507 1507
1483 1483 1483 1483 1484 1484 1485 1486 1487 1487 1488 1489 1490 1491 1492 1493 1495 1495 1496 1497 1498 1499 1499 1500 1500 1500 1501 1502 1502 1502 1502 1502 1502 1503 1503 1503 1502 1502 1503 1503 1503 1503 1504
1482 1482 1482 1482 1483 1483 1484 1484 1485 1485 1485 1486 1487 1488 1489 1490 1491 1492 1492 1493 1494 1495 1495 1496 1496 1497 1497 1498 1498 1499 1498 1498 1498 1499 1499 1499 1499 1499 1499 1499 1500 1499 1500
1481 1480 1480 1481 1481 1481 1482 1482 1482 1482 1483 1484 1484 1485 1486 1487 1487 1488 1489 1489 1490 1491 1492 1492 1493 1493 1493 1494 1494 1495 1495 1494 1494 1494 1495 1495 1495 1495 1496 1496 1496 1496 1496
1479 1478 1478 1478 1479 1479 1479 1478 1479 1480 1480 1481 1481 1482 1482 1483 1484 1485 1485 1486 1486 1487 1488 1488 1488 1489 1489 1490 1490 1490 1491 1491 1491 1491 1491 1491 1492 1492 1492 1492 1492 1492 1493
1478 1477 1477 1477 1477 1477 1477 1476 1477 1477 1478 1478 1478 1478 1479 1480 1481 1481 1481 1482 1483 1483 1484 1484 1484 1485 1485 1485 1486 1486 1487 1487 1487 1487 1488 1488 1488 1488 1488 1488 1488 1488 1488
1476 1476 1475 1475 1475 1475 1475 1475 1475 1475 1475 1475 1475 1475 1476 1476 1477 1478 1478 1478 1479 1479 1480 1480 1480 1480 1481 1481 1481 1482 1483 1483 1483 1483 1484 1484 1484 1484 1484 1484 1484 1484 1484
1475 1474 1474 1473 1473 1473 1472 1472 1472 1472 1472 1472 1472 1472 1472 1473 1473 1474 1474 1474 1475 1475 1476 1476 1476 1476 1476 1477 1478 1478 1478 1478 1479 1479 1479 1479 1479 1479 1479 1479 1479 1480 1480
1473 1472 1472 1471 1471 1470 1470 1470 1470 1470 1469 1469 1469 1469 1469 1469 1470 1470 1470 1470 1471 1472 1472 1473 1473 1473 1473 1473 1474 1474 1474 1475 1475 1475 1474 1474 1474 1474 1475 1475 1475 1475 1475